Location: Mentone
(34.5413°N, 85.5351°W)
Time: 01:23:27
(UTC-05:00)

Centaur AC-72 - Visible Passes

Search period start: 24 July 2014 00:00
Search period end: 03 August 2014 00:00
Orbit: 1076 x 35280 km, 19.1° (Epoch: 22 July)

Date Brightness Start Highest point End Pass type
(mag) Time Alt. Az. Time Alt. Az. Time Alt. Az.
24 Jul 6.6 01:39:40 10° WSW 03:37:50 35° WSW 10:59:41 10° SW visible
24 Jul 7.2 22:29:58 10° SW 01:35:51 66° SSW 08:17:56 10° SSE visible
25 Jul 7.0 19:37:28 10° S 02:58:15 69° SSE 05:24:13 10° ESE daylight
26 Jul 7.0 19:09:07 10° E 00:22:56 36° E 02:15:03 10° E visible
28 Jul 6.7 01:22:26 10° WSW 03:21:39 36° WSW 10:43:47 10° SW visible
28 Jul 7.2 22:13:43 10° SW 01:21:47 67° SSW 08:01:57 10° SSE visible
29 Jul 7.0 19:21:26 10° S 02:41:57 68° SSE 05:08:02 10° ESE visible
30 Jul 7.1 19:00:24 10° E 00:06:23 35° E 01:57:55 10° E visible
01 Aug 6.7 01:05:18 10° WSW 03:05:26 37° WSW 10:27:53 10° SW visible
01 Aug 7.2 21:57:29 10° SW 01:07:59 68° SSW 07:45:58 10° SSE visible
02 Aug 7.0 19:05:25 10° S 00:00:00 60° ESE 00:00:00 60° ESE visible
